Location: Gourdan-Polignan
(43.0709°N, 0.5748°E)
Time: 21:15:42
(UTC+00:00)

Spot 4 - Pass Details

Date: 15 May 2026
Orbit: 698 x 714 km, 98.2° (Epoch: 10 June)

Event Time Altitude Azimuth Distance (km) Brightness Sun altitude
Exits shadow 23:36:15 57° 300° (WNW) 836 4.2 -27.7°
Drops below altitude 10° 23:40:20 10° 341° (NNW) 2,189 7.3 -27.8°
Sets 23:42:38 0° 344° (NNW) 3,115 8.3 -27.8°
